When you browse on this site, cookies collect data to enhance your experience and personalize the content and advertising you see.
Visit our Privacy Policy to learn more. By continuing to use the site, you agree to this use of cookies and data.
  • En España
  • Lista de países
  • Para 7 días
  • Temperatura del agua
  • Mapa Satelital
  • El tiempo en el mapa
  • Informadores
  • user-avatar
    Iniciar sesión

    Tiempo cada hora Jerusalem

    Hoy, 20 Julio, Sábado

    Tiempo Temperatura Precipitaciones Viento Presión Humedad
    00:00 +19°C° 0 mm 1 mps 692 mmHg 85%
    01:00 +18°C° 0 mm 1 mps 691 mmHg 86%
    02:00 +18°C° 0 mm 1 mps 691 mmHg 86%
    03:00 +18°C° 0 mm 1 mps 691 mmHg 87%
    04:00 +18°C° 0 mm 1 mps 691 mmHg 88%
    05:00 +18°C° 0 mm 1 mps 692 mmHg 88%
    06:00 +20°C° 0 mm 1 mps 692 mmHg 80%
    07:00 +21°C° 0 mm 1 mps 692 mmHg 72%
    08:00 +23°C° 0 mm 1 mps 693 mmHg 64%
    09:00 +25°C° 0 mm 2 mps 693 mmHg 56%
    10:00 +27°C° 0 mm 3 mps 693 mmHg 48%
    11:00 +29°C° 0 mm 4 mps 694 mmHg 40%
    12:00 +29°C° 0 mm 4 mps 693 mmHg 40%
    13:00 +30°C° 0 mm 5 mps 693 mmHg 39%
    14:00 +30°C° 0 mm 6 mps 693 mmHg 39%
    15:00 +29°C° 0 mm 7 mps 692 mmHg 43%
    16:00 +28°C° 0 mm 7 mps 692 mmHg 47%
    17:00 +27°C° 0 mm 7 mps 692 mmHg 50%
    18:00 +24°C° 0 mm 6 mps 692 mmHg 62%
    19:00 +22°C° 0 mm 5 mps 692 mmHg 73%
    20:00 +20°C° 0 mm 3 mps 691 mmHg 84%
    21:00 +19°C° 0 mm 3 mps 691 mmHg 85%
    22:00 +19°C° 0 mm 2 mps 691 mmHg 86%
    23:00 +18°C° 0 mm 2 mps 691 mmHg 88%

    Mañana, 21 Julio, Domingo

    Tiempo Temperatura Precipitaciones Viento Presión Humedad
    00:00 +18°C° 0 mm 2 mps 691 mmHg 88%
    01:00 +18°C° 0 mm 2 mps 691 mmHg 88%
    02:00 +18°C° 0 mm 1 mps 690 mmHg 89%
    03:00 +18°C° 0 mm 1 mps 690 mmHg 88%
    04:00 +19°C° 0 mm 1 mps 691 mmHg 88%
    05:00 +19°C° 0 mm 1 mps 691 mmHg 88%
    06:00 +20°C° 0 mm 1 mps 691 mmHg 79%
    07:00 +22°C° 0 mm 1 mps 691 mmHg 70%
    08:00 +24°C° 0 mm 2 mps 691 mmHg 61%
    09:00 +25°C° 0 mm 2 mps 692 mmHg 54%
    10:00 +27°C° 0 mm 2 mps 692 mmHg 47%
    11:00 +29°C° 0 mm 3 mps 692 mmHg 40%
    12:00 +29°C° 0 mm 4 mps 692 mmHg 41%
    13:00 +30°C° 0 mm 4 mps 692 mmHg 41%
    14:00 +30°C° 0 mm 5 mps 691 mmHg 41%
    15:00 +29°C° 0 mm 6 mps 691 mmHg 44%
    16:00 +28°C° 0 mm 6 mps 691 mmHg 47%
    17:00 +27°C° 0 mm 7 mps 691 mmHg 50%
    18:00 +25°C° 0 mm 5 mps 691 mmHg 59%
    19:00 +22°C° 0 mm 4 mps 690 mmHg 68%
    20:00 +20°C° 0 mm 3 mps 690 mmHg 77%
    21:00 +20°C° 0 mm 2 mps 690 mmHg 77%
    22:00 +19°C° 0 mm 2 mps 690 mmHg 77%
    23:00 +20°C° 0 mm 1 mps 690 mmHg 77%

    Pasado mañana, 22 Julio, Lunes

    Tiempo Temperatura Precipitaciones Viento Presión Humedad
    00:00 +19°C° 0 mm 1 mps 690 mmHg 79%
    01:00 +19°C° 0 mm 1 mps 689 mmHg 82%
    02:00 +19°C° 0 mm 1 mps 689 mmHg 84%
    03:00 +18°C° 0 mm 1 mps 689 mmHg 85%
    04:00 +18°C° 0 mm 1 mps 689 mmHg 85%
    05:00 +18°C° 0 mm 1 mps 689 mmHg 86%
    06:00 +21°C° 0 mm 1 mps 690 mmHg 75%
    07:00 +23°C° 0 mm 1 mps 690 mmHg 64%
    08:00 +26°C° 0 mm 1 mps 691 mmHg 53%
    09:00 +28°C° 0 mm 2 mps 691 mmHg 46%
    10:00 +30°C° 0 mm 2 mps 691 mmHg 40%
    11:00 +33°C° 0 mm 3 mps 692 mmHg 33%
    12:00 +33°C° 0 mm 4 mps 691 mmHg 33%
    13:00 +34°C° 0 mm 4 mps 691 mmHg 33%
    14:00 +35°C° 0 mm 5 mps 690 mmHg 33%
    15:00 +33°C° 0 mm 5 mps 690 mmHg 37%
    16:00 +32°C° 0 mm 6 mps 690 mmHg 40%
    17:00 +30°C° 0 mm 7 mps 689 mmHg 43%
    18:00 +28°C° 0 mm 6 mps 689 mmHg 52%
    19:00 +26°C° 0 mm 4 mps 689 mmHg 60%
    20:00 +22°C° 0 mm 3 mps 689 mmHg 69%
    21:00 +22°C° 0 mm 3 mps 688 mmHg 71%
    22:00 +21°C° 0 mm 2 mps 688 mmHg 72%
    23:00 +21°C° 0 mm 2 mps 688 mmHg 74%

    23 Julio, Martes

    Tiempo Temperatura Precipitaciones Viento Presión Humedad
    00:00 +20°C° 0 mm 2 mps 688 mmHg 75%
    01:00 +21°C° 0 mm 1 mps 688 mmHg 76%
    02:00 +20°C° 0 mm 1 mps 687 mmHg 77%
    03:00 +20°C° 0 mm 1 mps 687 mmHg 77%
    04:00 +20°C° 0 mm 1 mps 687 mmHg 77%
    05:00 +19°C° 0 mm 1 mps 687 mmHg 78%
    06:00 +22°C° 0 mm 1 mps 688 mmHg 68%
    07:00 +24°C° 0 mm 1 mps 688 mmHg 59%
    08:00 +27°C° 0 mm 1 mps 689 mmHg 49%
    09:00 +29°C° 0 mm 2 mps 689 mmHg 44%
    10:00 +31°C° 0 mm 2 mps 689 mmHg 38%
    11:00 +33°C° 0 mm 3 mps 690 mmHg 32%
    12:00 +34°C° 0 mm 4 mps 689 mmHg 34%
    13:00 +34°C° 0 mm 5 mps 689 mmHg 35%
    14:00 +34°C° 0 mm 6 mps 689 mmHg 36%
    15:00 +33°C° 0 mm 7 mps 689 mmHg 38%
    16:00 +32°C° 0 mm 8 mps 688 mmHg 39%
    17:00 +31°C° 0 mm 8 mps 688 mmHg 41%
    18:00 +28°C° 0 mm 7 mps 688 mmHg 52%
    19:00 +25°C° 0 mm 5 mps 688 mmHg 62%
    20:00 +22°C° 0 mm 3 mps 688 mmHg 73%
    21:00 +21°C° 0 mm 3 mps 688 mmHg 74%
    22:00 +21°C° 0 mm 2 mps 688 mmHg 75%
    23:00 +20°C° 0 mm 2 mps 688 mmHg 76%

    24 Julio, Miércoles

    Tiempo Temperatura Precipitaciones Viento Presión Humedad
    00:00 +21°C° 0 mm 1 mps 688 mmHg 77%
    01:00 +20°C° 0 mm 1 mps 688 mmHg 79%
    02:00 +20°C° 0 mm 1 mps 688 mmHg 80%
    03:00 +20°C° 0 mm 1 mps 688 mmHg 79%
    04:00 +19°C° 0 mm 1 mps 688 mmHg 77%
    05:00 +19°C° 0 mm 1 mps 688 mmHg 76%
    06:00 +22°C° 0 mm 1 mps 688 mmHg 65%
    07:00 +24°C° 0 mm 1 mps 689 mmHg 54%
    08:00 +27°C° 0 mm 2 mps 690 mmHg 42%
    09:00 +28°C° 0 mm 2 mps 690 mmHg 39%
    10:00 +30°C° 0 mm 3 mps 690 mmHg 35%
    11:00 +32°C° 0 mm 4 mps 690 mmHg 31%
    12:00 +33°C° 0 mm 4 mps 690 mmHg 30%
    13:00 +34°C° 0 mm 4 mps 690 mmHg 29%
    14:00 +34°C° 0 mm 5 mps 690 mmHg 28%
    15:00 +33°C° 0 mm 6 mps 690 mmHg 30%
    16:00 +32°C° 0 mm 6 mps 690 mmHg 33%
    17:00 +30°C° 0 mm 7 mps 689 mmHg 35%
    18:00 +27°C° 0 mm 6 mps 689 mmHg 47%
    19:00 +25°C° 0 mm 4 mps 689 mmHg 60%
    20:00 +21°C° 0 mm 3 mps 689 mmHg 72%
    21:00 +21°C° 0 mm 2 mps 689 mmHg 69%
    22:00 +20°C° 0 mm 2 mps 689 mmHg 66%
    23:00 +21°C° 0 mm 1 mps 689 mmHg 63%

    25 Julio, Jueves

    Tiempo Temperatura Precipitaciones Viento Presión Humedad
    00:00 +21°C° 0 mm 1 mps 689 mmHg 63%
    01:00 +20°C° 0 mm 1 mps 688 mmHg 62%
    02:00 +20°C° 0 mm 1 mps 688 mmHg 62%
    03:00 +19°C° 0 mm 1 mps 688 mmHg 64%
    04:00 +19°C° 0 mm 1 mps 688 mmHg 66%
    05:00 +19°C° 0 mm 1 mps 688 mmHg 67%
    06:00 +21°C° 0 mm 1 mps 689 mmHg 58%
    07:00 +24°C° 0 mm 1 mps 690 mmHg 49%
    08:00 +27°C° 0 mm 1 mps 691 mmHg 39%
    09:00 +29°C° 0 mm 1 mps 691 mmHg 34%
    10:00 +30°C° 0 mm 2 mps 691 mmHg 29%
    11:00 +32°C° 0 mm 2 mps 691 mmHg 24%
    12:00 +34°C° 0 mm 3 mps 691 mmHg 26%
    13:00 +34°C° 0 mm 4 mps 691 mmHg 28%
    14:00 +35°C° 0 mm 5 mps 690 mmHg 30%
    15:00 +34°C° 0 mm 5 mps 690 mmHg 31%
    16:00 +33°C° 0 mm 5 mps 690 mmHg 32%
    17:00 +32°C° 0 mm 5 mps 690 mmHg 33%
    18:00 +28°C° 0 mm 5 mps 689 mmHg 43%
    19:00 +25°C° 0 mm 4 mps 689 mmHg 54%
    20:00 +22°C° 0 mm 3 mps 689 mmHg 64%
    21:00 +21°C° 0 mm 3 mps 689 mmHg 58%
    22:00 +21°C° 0 mm 2 mps 689 mmHg 52%
    23:00 +20°C° 0 mm 2 mps 689 mmHg 46%
    Mostrar más